Probability
0 0 0 0 0 0 0 0 0 0 0 0 0 0 0 0 0 0 0 0 0 0 1 2 3 2 1 0 0 0 0 0 0 0 0 0 1 1 0 1 2 3 3
0 0 0 0 0 0 0 0 0 0 0 0 0 0 0 0 0 0 0 0 0 0 1 2 2 1 0 0 0 0 0 0 0 0 0 0 1 1 0 0 1 2 3
0 0 0 0 0 0 0 0 0 0 0 0 0 0 0 0 0 0 0 0 0 0 0 1 1 0 0 0 0 0 0 0 0 0 0 0 1 1 0 0 0 1 2
0 0 0 0 0 0 0 0 0 0 0 0 0 0 0 0 0 0 0 0 0 0 0 0 0 0 0 0 0 0 0 0 0 0 0 0 0 0 0 0 0 1 2
0 0 0 0 0 0 0 0 0 0 0 0 0 0 0 0 0 0 0 0 0 0 0 0 0 0 0 0 0 0 0 0 0 0 0 0 0 0 0 0 0 0 1
0 0 0 0 0 0 0 0 0 0 0 0 0 0 0 0 0 0 0 0 0 0 0 0 0 0 0 0 0 0 0 0 0 0 0 0 0 0 0 0 0 0 0
0 0 0 0 0 0 0 0 0 0 0 0 0 0 0 0 0 0 0 0 0 0 0 0 0 0 0 0 0 0 0 0 0 0 0 0 0 0 0 0 0 1 1
0 0 0 0 0 0 0 0 0 0 0 0 0 0 0 0 0 0 0 0 0 0 0 0 0 0 0 0 0 0 0 0 0 0 0 0 0 0 0 0 0 1 2
0 0 0 0 0 0 0 0 0 0 0 0 0 0 0 0 0 0 0 0 0 0 0 0 0 0 0 0 0 0 0 0 0 0 0 0 0 0 0 0 0 2 3
0 0 0 0 0 0 0 0 0 0 0 0 0 0 0 0 0 0 0 0 0 0 0 0 0 0 0 0 0 0 0 0 0 0 0 0 0 0 1 1 1 2 2
0 0 0 0 0 0 0 0 0 0 0 0 0 0 0 0 0 0 0 0 0 0 0 0 0 0 0 0 0 0 0 0 0 0 0 0 0 0 0 1 1 2 1
0 0 0 0 0 0 0 0 0 0 0 0 0 0 0 0 0 0 0 0 0 0 0 0 0 0 0 0 0 0 0 0 0 0 0 0 0 0 0 0 1 1 0
0 0 0 0 0 0 0 0 0 0 0 0 0 0 0 0 0 0 0 0 0 0 0 0 0 0 0 0 0 0 0 0 0 0 0 0 0 0 0 0 0 0 0
0 0 0 0 0 0 0 0 0 0 0 0 0 0 0 0 0 0 0 0 0 0 0 0 0 0 0 0 0 0 0 0 0 0 0 0 0 0 0 0 0 0 0
0 0 0 0 0 0 0 0 0 0 0 0 0 0 0 0 0 0 0 0 0 0 0 0 0 0 0 0 0 0 0 0 0 0 0 0 0 0 0 0 0 0 0
0 0 0 0 0 0 0 0 0 0 0 0 0 0 0 0 0 0 0 0 0 0 0 0 0 0 0 0 0 0 0 0 0 0 0 0 0 0 0 0 0 0 0
0 0 0 0 0 0 0 0 0 0 0 0 0 0 0 0 0 0 0 0 0 0 0 0 0 0 0 0 0 0 0 0 0 0 0 0 0 0 0 0 0 0 0
0 0 0 0 0 0 0 0 0 0 0 0 0 0 0 0 0 0 0 0 0 0 0 0 0 0 0 0 0 0 0 0 0 0 0 0 0 0 0 0 0 0 0
0 0 0 0 0 0 0 0 0 0 0 0 0 0 0 0 0 0 0 0 0 0 0 0 0 0 0 0 0 0 0 0 0 0 0 0 0 0 0 0 0 0 0
0 0 0 0 0 0 0 0 0 0 0 0 0 0 0 0 0 0 0 0 0 0 0 0 0 0 0 0 0 0 0 0 0 0 0 0 0 0 0 0 0 0 0
0 0 0 0 0 0 0 0 0 0 0 0 0 0 0 0 0 0 0 0 0 0 0 0 0 0 0 0 0 0 0 0 0 0 0 0 0 0 0 0 0 0 0
0 0 0 0 0 0 0 0 0 0 0 0 0 0 0 0 0 0 0 0 0 0 0 0 0 0 0 0 0 0 0 0 0 0 0 0 0 0 0 0 0 0 0
0 0 0 0 0 0 0 0 0 0 0 0 0 0 0 0 0 0 0 0 0 0 0 0 0 0 0 0 0 0 0 0 0 0 0 0 0 0 0 0 0 0 0
0 0 0 0 0 0 0 0 0 0 0 0 0 0 0 0 0 0 0 0 0 0 0 0 0 0 0 0 0 0 0 0 0 0 0 0 0 0 0 0 0 0 0
0 0 0 0 0 0 0 0 0 0 0 0 0 0 0 0 0 0 0 0 0 0 0 0 0 0 0 0 0 0 0 0 0 0 0 0 0 0 0 0 0 0 0
0 0 0 0 0 0 0 0 0 0 0 0 0 0 0 0 0 0 0 0 0 0 0 0 0 0 0 0 0 0 0 0 0 0 0 0 0 0 0 0 0 0 0
Wind_Speed
2 2 1 1 1 1 1 1 1 1 1 1 1 1 0 0 0 0 1 3 2 2 2 2 2 2 2 1 1 2 2 2 2 2 1 2 2 2 1 0 1 1 0
3 2 1 1 1 1 1 1 1 1 1 1 0 0 0 0 1 1 1 2 3 3 4 3 2 2 2 2 2 2 3 3 3 3 2 2 3 2 2 1 1 1 1
3 3 2 2 1 1 1 1 1 1 1 0 0 1 0 0 0 1 1 1 1 3 3 3 3 3 3 3 2 3 3 3 4 3 3 3 3 3 2 2 2 2 2
3 2 2 2 2 2 2 1 1 1 0 0 0 0 1 1 0 0 0 1 1 1 2 3 3 4 4 4 3 3 4 4 5 4 4 3 4 4 3 3 3 3 3
2 2 2 2 2 2 2 1 1 1 1 0 0 0 0 1 1 1 0 1 1 1 1 3 4 5 5 5 5 5 5 5 5 5 5 4 5 5 4 4 4 3 3
2 2 2 2 2 2 2 2 1 1 1 1 0 0 1 1 1 1 1 1 1 1 1 2 2 3 5 6 6 6 5 5 5 5 5 5 5 5 4 4 4 4 4
2 2 1 2 2 2 2 2 2 1 1 0 1 1 1 1 1 1 1 1 1 1 1 1 1 2 2 5 6 6 6 6 5 4 4 5 5 5 5 5 5 5 5
3 2 3 2 2 2 2 2 2 1 1 1 1 0 2 2 2 2 1 1 2 1 2 2 2 2 2 2 4 6 7 7 5 5 5 5 6 5 6 6 5 5 5
3 2 3 2 2 3 3 3 3 3 2 1 1 2 2 3 2 2 2 2 2 2 2 2 2 2 2 2 3 5 6 6 5 5 5 5 6 6 6 5 5 6 6
3 3 3 3 2 2 3 3 3 2 3 2 1 1 1 2 1 2 3 2 2 3 3 2 2 3 2 2 3 4 5 4 4 4 3 4 4 5 6 6 6 7 7
3 3 3 3 3 2 3 3 3 3 2 3 3 2 1 1 1 2 3 3 3 3 3 3 2 2 2 2 2 4 4 3 4 3 3 4 5 5 5 6 7 8 8
2 3 3 3 3 3 3 3 3 4 3 3 3 3 3 2 3 2 3 3 3 3 2 2 2 2 2 2 3 4 4 3 3 2 3 3 4 5 5 6 6 6 7
3 4 3 3 3 3 3 3 3 3 4 4 4 3 3 3 2 2 2 2 2 2 2 2 2 2 2 1 2 3 3 3 3 3 3 3 4 5 6 6 7 6 7
4 4 4 4 4 4 4 3 3 4 3 4 5 4 3 3 3 3 3 2 2 2 2 3 1 2 2 1 2 3 2 4 4 4 3 4 5 5 6 7 7 7 8
3 4 5 5 4 4 4 4 3 4 4 4 4 5 4 3 3 3 3 3 3 3 4 3 2 2 1 1 2 1 2 4 4 4 4 5 5 6 6 7 8 8 9
3 4 4 5 5 5 4 4 4 4 4 4 3 4 4 3 3 3 3 3 3 4 4 2 3 1 1 1 2 1 2 4 4 5 5 5 5 6 6 7 7 7 8
3 4 4 4 5 5 4 4 5 4 5 4 4 4 5 4 3 3 3 3 3 4 5 3 1 1 1 1 2 1 1 2 3 5 5 5 5 5 6 6 7 7 8
2 3 3 4 4 5 4 5 5 5 5 5 5 5 5 3 4 3 3 4 4 4 4 4 2 1 2 2 1 2 2 2 2 4 5 5 6 5 6 6 7 7 7
2 2 2 4 4 4 4 5 5 5 5 5 5 5 5 4 4 3 4 4 3 3 3 3 3 1 1 1 1 2 2 2 3 3 5 6 6 6 6 7 7 6 7
1 2 2 3 3 4 4 4 4 4 4 4 5 5 5 5 5 5 4 4 3 3 3 3 3 2 1 1 0 1 2 2 3 2 4 4 5 6 7 7 7 6 7
2 2 2 2 2 3 3 3 3 4 4 4 4 4 5 5 6 4 4 4 4 3 3 3 3 2 2 1 2 1 3 2 3 1 2 3 3 3 3 5 6 6 7
2 2 1 2 2 3 4 5 4 4 3 3 4 3 3 4 4 6 6 5 5 4 4 4 3 3 3 3 2 2 2 2 3 1 1 3 1 3 2 2 5 6 7
2 2 2 2 3 3 3 4 4 3 3 3 3 2 2 2 2 2 4 4 4 4 5 4 4 5 4 4 3 3 3 3 3 1 1 3 1 3 2 3 6 6 7
2 2 2 3 3 3 3 4 4 3 2 2 3 3 3 2 2 2 1 1 2 3 3 3 3 4 3 2 3 3 3 2 2 1 1 3 2 3 3 3 6 7 6
2 2 2 2 2 3 3 3 3 2 2 2 2 2 2 2 3 3 2 2 2 2 3 3 3 2 2 2 1 1 1 1 2 2 1 2 1 2 3 3 4 6 6
2 2 2 2 2 2 3 3 2 1 2 2 1 2 3 4 4 5 3 3 3 3 2 1 2 2 1 2 2 2 3 2 2 2 2 2 1 1 3 2 2 2 3
Wind_Direction
136 130 136 123 111 97 95 92 94 93 86 70 73 95 107 159 257 294 309 325 299 263 254 245 238 239 232 224 239 239 236 241 224 233 278 231 210 190 156 159 160 151 119
145 143 148 147 137 125 126 120 116 107 106 110 82 184 204 235 263 284 311 319 318 299 270 261 265 265 261 254 252 262 251 245 235 240 259 263 226 205 196 218 228 224 229
152 157 163 166 165 142 130 110 89 76 91 90 51 339 283 246 267 298 321 323 316 320 304 289 290 289 284 273 269 266 264 248 242 244 248 265 239 222 214 228 260 247 237
160 162 167 175 169 144 140 134 131 109 78 34 323 316 328 306 276 287 348 339 332 328 323 322 317 308 300 284 275 270 264 262 253 244 243 258 254 231 233 232 250 255 248
161 170 172 171 160 152 151 160 150 162 170 254 272 302 324 304 290 288 316 321 310 318 319 324 328 322 314 295 282 279 265 260 261 245 243 247 246 234 234 231 238 249 252
163 155 159 163 158 152 154 160 165 153 172 181 250 330 295 267 269 273 274 290 297 309 314 318 319 316 313 297 283 284 276 259 261 250 246 240 237 232 237 240 242 239 253
163 158 151 156 162 172 179 174 168 161 186 141 74 338 313 261 251 257 268 275 283 288 303 300 299 301 301 299 286 285 287 267 256 254 246 238 235 234 238 239 243 247 251
170 169 164 169 172 170 173 183 177 166 180 166 136 103 315 316 297 262 266 265 279 294 290 288 291 286 284 287 293 288 290 282 259 254 255 251 242 239 243 241 241 246 254
174 168 170 167 178 179 188 194 188 181 190 205 179 160 167 242 298 297 270 262 274 271 274 280 276 276 274 272 280 289 294 292 276 267 264 262 246 241 242 241 241 247 254
185 180 173 173 179 189 198 204 201 202 181 197 209 215 184 172 198 292 298 274 265 256 263 271 268 270 270 265 274 285 292 288 286 286 270 269 270 253 244 243 244 246 251
195 188 185 183 189 197 206 205 204 204 203 200 192 185 185 181 203 204 267 288 289 258 254 260 265 268 267 265 267 272 276 280 283 287 277 278 281 277 272 260 254 250 249
208 202 197 195 201 206 210 210 208 209 213 212 207 195 184 183 197 196 231 253 266 274 273 258 254 256 250 256 271 277 267 261 256 270 286 292 288 287 283 276 272 270 261
217 215 212 211 212 217 215 207 206 213 213 214 215 218 216 214 188 187 203 235 257 280 286 267 243 246 248 238 270 281 271 277 270 268 277 288 285 280 276 279 279 280 279
216 207 209 217 218 216 215 211 212 214 213 221 225 222 225 226 209 196 187 188 251 274 269 268 269 240 246 229 270 268 270 284 279 269 269 274 276 277 276 276 276 276 278
216 206 207 211 217 216 214 210 217 215 212 219 225 227 229 231 224 216 203 195 202 247 258 248 253 257 251 237 268 259 267 281 280 271 269 271 274 273 273 273 274 272 272
219 208 210 212 214 216 212 212 219 217 215 220 221 225 231 233 233 221 215 215 213 222 252 243 229 257 250 254 263 244 257 281 285 283 276 272 269 270 273 276 277 277 274
225 218 214 214 213 215 214 215 221 212 217 222 223 226 232 225 226 226 222 218 218 215 242 264 233 250 234 253 289 285 272 263 277 280 278 274 272 274 275 275 278 280 275
239 231 222 220 219 216 212 215 222 217 218 224 227 227 233 225 227 226 223 224 226 222 228 255 259 244 245 256 270 282 288 281 276 281 273 271 272 274 278 278 279 282 281
256 248 227 225 224 220 217 221 223 223 222 226 226 227 232 223 227 228 229 229 230 229 229 242 258 247 253 270 307 303 293 294 287 288 274 270 268 272 275 275 276 280 283
272 264 255 244 236 229 223 224 226 226 227 231 232 232 228 224 225 223 225 228 227 228 228 238 254 259 251 275 285 286 300 296 291 299 278 276 273 271 272 272 273 275 276
288 274 265 268 258 239 231 229 227 229 228 233 237 239 238 235 233 227 227 223 217 223 225 235 248 257 257 254 241 239 263 288 285 263 281 275 271 268 269 273 271 269 271
298 285 264 257 255 254 249 237 228 227 231 231 237 244 247 238 241 240 243 236 225 221 221 225 238 241 246 241 240 232 246 276 277 265 270 282 262 264 273 268 276 275 275
282 279 279 272 267 275 265 245 233 213 223 230 235 242 249 256 248 247 251 252 246 246 231 221 233 240 239 228 217 228 237 243 253 267 256 276 279 275 285 281 278 276 280
275 273 276 272 271 282 281 261 238 215 222 230 232 231 231 244 241 225 224 240 243 248 245 233 230 245 250 235 213 222 229 252 287 274 201 258 278 276 296 287 279 278 281
289 281 289 281 279 291 287 273 244 217 223 238 238 230 228 231 244 231 210 211 250 274 277 257 254 269 284 267 216 160 176 216 269 258 201 225 274 298 299 287 286 287 291
295 298 298 297 286 290 293 276 243 207 223 236 235 235 236 234 239 226 205 198 231 256 261 285 290 299 290 268 226 197 188 202 232 253 213 195 225 288 303 295 299 302 297